Time,TemperatureF,DewpointF,PressureIn,WindDirection,WindDirectionDegrees,WindSpeedMPH,WindSpeedGustMPH,Humidity,HourlyPrecipIn,Conditions,Clouds,dailyrainin,SolarRadiationWatts/m^2,SoftwareType,DateUTC
2013-01-19 00:07:00,37.0,33.0,29.64,North,358,0.0,0.0,84,0.00,,,0.00,0,weatherlink.com 1.10,2013-01-18 23:07:00,
2013-01-19 00:22:00,36.7,32.0,29.65,North,358,0.0,1.0,84,0.00,,,0.00,0,weatherlink.com 1.10,2013-01-18 23:22:00,
2013-01-19 00:37:00,36.7,32.0,29.65,North,358,0.0,1.0,84,0.00,,,0.00,0,weatherlink.com 1.10,2013-01-18 23:37:00,
2013-01-19 00:52:00,36.6,33.0,29.65,North,358,0.0,0.0,85,0.00,,,0.00,0,weatherlink.com 1.10,2013-01-18 23:52:00,
2013-01-19 01:07:00,36.2,32.0,29.65,North,358,0.0,0.0,85,0.00,,,0.00,0,weatherlink.com 1.10,2013-01-19 00:07:00,
2013-01-19 01:22:00,36.1,32.0,29.65,North,358,0.0,0.0,86,0.00,,,0.00,0,weatherlink.com 1.10,2013-01-19 00:22:00,
2013-01-19 01:37:00,35.9,32.0,29.65,North,358,0.0,0.0,86,0.00,,,0.00,0,weatherlink.com 1.10,2013-01-19 00:37:00,
2013-01-19 01:52:00,35.8,32.0,29.65,North,358,0.0,0.0,86,0.00,,,0.00,0,weatherlink.com 1.10,2013-01-19 00:52:00,
2013-01-19 02:07:00,35.5,32.0,29.66,North,358,0.0,0.0,86,0.00,,,0.00,0,weatherlink.com 1.10,2013-01-19 01:07:00,
2013-01-19 02:22:00,34.8,31.0,29.66,North,358,0.0,0.0,87,0.00,,,0.00,0,weatherlink.com 1.10,2013-01-19 01:22:00,
2013-01-19 02:37:00,34.3,31.0,29.66,North,358,0.0,1.0,88,0.00,,,0.00,0,weatherlink.com 1.10,2013-01-19 01:37:00,
2013-01-19 02:52:00,33.6,30.0,29.66,North,358,0.0,1.0,88,0.00,,,0.00,0,weatherlink.com 1.10,2013-01-19 01:52:00,
2013-01-19 03:07:00,33.8,31.0,29.66,North,358,1.0,1.0,90,0.00,,,0.00,0,weatherlink.com 1.10,2013-01-19 02:07:00,
2013-01-19 03:23:00,33.3,31.0,29.66,North,358,0.0,2.0,90,0.00,,,0.00,0,weatherlink.com 1.10,2013-01-19 02:23:00,
2013-01-19 03:38:00,33.5,31.0,29.66,North,358,0.0,0.0,91,0.00,,,0.00,0,weatherlink.com 1.10,2013-01-19 02:38:00,
2013-01-19 03:53:00,33.7,31.0,29.66,North,358,0.0,0.0,91,0.00,,,0.00,0,weatherlink.com 1.10,2013-01-19 02:53:00,
2013-01-19 04:08:00,33.8,32.0,29.66,North,358,0.0,0.0,91,0.00,,,0.00,0,weatherlink.com 1.10,2013-01-19 03:08:00,
2013-01-19 04:23:00,33.7,31.0,29.66,North,358,0.0,0.0,90,0.00,,,0.00,0,weatherlink.com 1.10,2013-01-19 03:23:00,
2013-01-19 04:38:00,33.5,31.0,29.66,North,358,0.0,0.0,91,0.00,,,0.00,0,weatherlink.com 1.10,2013-01-19 03:38:00,
2013-01-19 04:53:00,33.4,31.0,29.65,North,358,0.0,0.0,91,0.00,,,0.00,0,weatherlink.com 1.10,2013-01-19 03:53:00,
2013-01-19 05:08:00,33.4,31.0,29.65,North,358,0.0,0.0,91,0.00,,,0.00,0,weatherlink.com 1.10,2013-01-19 04:08:00,
2013-01-19 05:23:00,33.5,31.0,29.64,North,358,0.0,0.0,90,0.00,,,0.00,0,weatherlink.com 1.10,2013-01-19 04:23:00,
2013-01-19 05:38:00,33.7,31.0,29.65,North,358,0.0,0.0,91,0.00,,,0.00,0,weatherlink.com 1.10,2013-01-19 04:38:00,
2013-01-19 05:53:00,33.8,31.0,29.65,North,358,0.0,0.0,90,0.00,,,0.00,0,weatherlink.com 1.10,2013-01-19 04:53:00,
2013-01-19 06:09:00,34.1,32.0,29.65,North,358,0.0,0.0,90,0.00,,,0.00,0,weatherlink.com 1.10,2013-01-19 05:09:00,
2013-01-19 06:23:00,34.3,32.0,29.65,North,358,0.0,0.0,90,0.00,,,0.00,0,weatherlink.com 1.10,2013-01-19 05:23:00,
2013-01-19 06:38:00,34.4,32.0,29.65,North,358,0.0,0.0,90,0.00,,,0.00,0,weatherlink.com 1.10,2013-01-19 05:38:00,
2013-01-19 06:53:00,34.8,32.0,29.65,North,358,0.0,0.0,89,0.00,,,0.00,0,weatherlink.com 1.10,2013-01-19 05:53:00,
2013-01-19 07:08:00,34.8,32.0,29.65,North,358,1.0,1.0,88,0.00,,,0.00,0,weatherlink.com 1.10,2013-01-19 06:08:00,
2013-01-19 07:23:00,34.9,32.0,29.64,North,358,0.0,1.0,88,0.00,,,0.00,0,weatherlink.com 1.10,2013-01-19 06:23:00,
2013-01-19 07:38:00,35.0,32.0,29.64,North,358,0.0,1.0,88,0.00,,,0.00,0,weatherlink.com 1.10,2013-01-19 06:38:00,
2013-01-19 07:53:00,35.2,32.0,29.64,North,358,0.0,0.0,88,0.00,,,0.00,0,weatherlink.com 1.10,2013-01-19 06:53:00,
2013-01-19 08:08:00,35.5,32.0,29.64,North,358,0.0,0.0,88,0.00,,,0.00,0,weatherlink.com 1.10,2013-01-19 07:08:00,
2013-01-19 08:23:00,35.8,33.0,29.63,North,358,0.0,0.0,89,0.00,,,0.00,9,weatherlink.com 1.10,2013-01-19 07:23:00,
2013-01-19 08:38:00,36.3,33.0,29.64,North,358,0.0,0.0,88,0.00,,,0.00,11,weatherlink.com 1.10,2013-01-19 07:38:00,
2013-01-19 08:53:00,37.0,34.0,29.64,North,358,0.0,0.0,87,0.00,,,0.00,5,weatherlink.com 1.10,2013-01-19 07:53:00,
2013-01-19 09:08:00,37.3,34.0,29.65,North,358,0.0,1.0,87,0.00,,,0.00,11,weatherlink.com 1.10,2013-01-19 08:08:00,
2013-01-19 09:23:00,37.6,34.0,29.66,North,358,0.0,1.0,88,0.00,,,0.00,14,weatherlink.com 1.10,2013-01-19 08:23:00,
2013-01-19 09:38:00,38.0,35.0,29.66,North,358,0.0,2.0,90,0.00,,,0.00,28,weatherlink.com 1.10,2013-01-19 08:38:00,
2013-01-19 09:53:00,38.3,36.0,29.67,North,358,0.0,0.0,91,0.00,,,0.00,25,weatherlink.com 1.10,2013-01-19 08:53:00,
2013-01-19 10:08:00,38.6,37.0,29.67,North,358,0.0,0.0,92,0.00,,,0.00,32,weatherlink.com 1.10,2013-01-19 09:08:00,
2013-01-19 10:23:00,39.3,37.0,29.67,North,358,1.0,2.0,92,0.00,,,0.00,39,weatherlink.com 1.10,2013-01-19 09:23:00,
2013-01-19 10:38:00,40.9,39.0,29.66,ENE,65,3.0,5.0,92,0.00,,,0.00,42,weatherlink.com 1.10,2013-01-19 09:38:00,
2013-01-19 10:53:00,42.7,40.0,29.66,ENE,66,4.0,7.0,89,0.00,,,0.00,32,weatherlink.com 1.10,2013-01-19 09:53:00,
2013-01-19 11:08:00,43.0,40.0,29.66,ENE,65,2.0,4.0,90,0.00,,,0.00,35,weatherlink.com 1.10,2013-01-19 10:08:00,
2013-01-19 11:23:00,43.2,41.0,29.65,ENE,65,3.0,3.0,91,0.00,,,0.00,33,weatherlink.com 1.10,2013-01-19 10:23:00,
2013-01-19 11:38:00,43.5,41.0,29.63,ENE,59,2.0,4.0,92,0.00,,,0.00,56,weatherlink.com 1.10,2013-01-19 10:38:00,
2013-01-19 11:53:00,44.3,41.0,29.63,ENE,67,7.0,10.0,89,0.00,,,0.00,39,weatherlink.com 1.10,2013-01-19 10:53:00,
2013-01-19 12:08:00,44.1,41.0,29.62,ENE,58,0.0,1.0,90,0.00,,,0.00,28,weatherlink.com 1.10,2013-01-19 11:08:00,
2013-01-19 13:54:00,47.6,43.0,29.57,WNW,284,0.0,3.0,83,0.00,,,0.00,18,weatherlink.com 1.10,2013-01-19 12:54:00,
2013-01-19 14:09:00,45.8,42.0,29.57,North,358,0.0,3.0,86,0.00,,,0.00,18,weatherlink.com 1.10,2013-01-19 13:09:00,
2013-01-19 14:24:00,44.9,42.0,29.56,NE,36,2.0,3.0,88,0.00,,,0.00,16,weatherlink.com 1.10,2013-01-19 13:24:00,
2013-01-19 14:39:00,44.6,41.0,29.56,WNW,296,1.0,2.0,88,0.00,,,0.00,14,weatherlink.com 1.10,2013-01-19 13:39:00,
2013-01-19 14:54:00,44.3,41.0,29.55,North,350,0.0,4.0,89,0.00,,,0.00,28,weatherlink.com 1.10,2013-01-19 13:54:00,
2013-01-19 15:09:00,45.2,42.0,29.55,NW,318,0.0,5.0,89,0.00,,,0.00,23,weatherlink.com 1.10,2013-01-19 14:09:00,
2013-01-19 15:24:00,46.0,43.0,29.55,ENE,74,0.0,7.0,88,0.00,,,0.00,9,weatherlink.com 1.10,2013-01-19 14:24:00,
2013-01-19 15:39:00,46.7,43.0,29.54,ENE,65,0.0,4.0,88,0.00,,,0.00,9,weatherlink.com 1.10,2013-01-19 14:39:00,
2013-01-19 15:54:00,49.3,45.0,29.54,East,97,4.0,15.0,84,0.00,,,0.00,11,weatherlink.com 1.10,2013-01-19 14:54:00,
2013-01-19 16:09:00,49.9,45.0,29.53,ENE,75,7.0,16.0,82,0.00,,,0.00,7,weatherlink.com 1.10,2013-01-19 15:09:00,
2013-01-19 16:24:00,50.2,45.0,29.53,ENE,67,12.0,17.0,82,0.00,,,0.00,5,weatherlink.com 1.10,2013-01-19 15:24:00,
2013-01-19 16:39:00,50.4,45.0,29.53,ENE,70,9.0,19.0,82,0.00,,,0.00,0,weatherlink.com 1.10,2013-01-19 15:39:00,
2013-01-19 16:55:00,50.3,45.0,29.52,East,79,12.0,20.0,83,0.00,,,0.00,0,weatherlink.com 1.10,2013-01-19 15:55:00,
2013-01-19 17:09:00,50.4,46.0,29.53,ENE,77,7.0,16.0,84,0.00,,,0.00,0,weatherlink.com 1.10,2013-01-19 16:09:00,
2013-01-19 17:24:00,50.5,46.0,29.53,ENE,65,18.0,21.0,84,0.00,,,0.00,0,weatherlink.com 1.10,2013-01-19 16:24:00,
2013-01-19 17:39:00,50.8,46.0,29.53,East,80,15.0,21.0,84,0.00,,,0.00,0,weatherlink.com 1.10,2013-01-19 16:39:00,
2013-01-19 17:54:00,51.2,47.0,29.54,ENE,74,4.0,17.0,84,0.00,,,0.00,0,weatherlink.com 1.10,2013-01-19 16:54:00,
2013-01-19 18:09:00,51.5,47.0,29.54,ENE,77,11.0,27.0,84,0.00,,,0.00,0,weatherlink.com 1.10,2013-01-19 17:09:00,
2013-01-19 18:39:00,51.8,47.0,29.54,NE,56,11.0,21.0,84,0.00,,,0.00,0,weatherlink.com 1.10,2013-01-19 17:39:00,
2013-01-19 18:54:00,52.2,48.0,29.54,ENE,76,5.0,15.0,84,0.00,,,0.00,0,weatherlink.com 1.10,2013-01-19 17:54:00,
2013-01-19 19:24:00,52.8,48.0,29.55,ENE,72,6.0,16.0,83,0.00,,,0.00,0,weatherlink.com 1.10,2013-01-19 18:24:00,
2013-01-19 19:39:00,53.0,48.0,29.54,ENE,75,8.0,17.0,83,0.00,,,0.00,0,weatherlink.com 1.10,2013-01-19 18:39:00,
2013-01-19 19:54:00,53.5,49.0,29.54,ENE,77,8.0,19.0,83,0.00,,,0.00,0,weatherlink.com 1.10,2013-01-19 18:54:00,
2013-01-19 20:09:00,53.9,49.0,29.53,ENE,69,6.0,19.0,83,0.00,,,0.00,0,weatherlink.com 1.10,2013-01-19 19:09:00,
2013-01-19 20:24:00,54.4,50.0,29.53,East,86,6.0,20.0,84,0.00,,,0.00,0,weatherlink.com 1.10,2013-01-19 19:24:00,
2013-01-19 20:39:00,54.6,50.0,29.53,ENE,67,8.0,17.0,84,0.00,,,0.00,0,weatherlink.com 1.10,2013-01-19 19:39:00,
2013-01-19 20:54:00,54.8,50.0,29.53,ENE,77,8.0,19.0,85,0.00,,,0.00,0,weatherlink.com 1.10,2013-01-19 19:54:00,
2013-01-19 21:09:00,54.6,51.0,29.53,ENE,75,7.0,19.0,86,0.00,,,0.00,0,weatherlink.com 1.10,2013-01-19 20:09:00,
2013-01-19 21:24:00,54.4,50.0,29.53,ENE,68,13.0,22.0,86,0.00,,,0.00,0,weatherlink.com 1.10,2013-01-19 20:24:00,
2013-01-19 21:39:00,54.4,51.0,29.54,ESE,102,7.0,17.0,88,0.00,,,0.00,0,weatherlink.com 1.10,2013-01-19 20:39:00,
2013-01-19 21:54:00,54.6,52.0,29.54,East,80,10.0,24.0,89,0.00,,,0.00,0,weatherlink.com 1.10,2013-01-19 20:54:00,
2013-01-19 22:09:00,54.2,51.0,29.55,East,80,6.0,17.0,90,0.00,,,0.00,0,weatherlink.com 1.10,2013-01-19 21:09:00,
2013-01-19 22:24:00,53.7,51.0,29.54,ENE,71,13.0,15.0,91,0.00,,,0.00,0,weatherlink.com 1.10,2013-01-19 21:24:00,
2013-01-19 22:39:00,54.1,52.0,29.54,East,92,7.0,11.0,91,0.00,,,0.00,0,weatherlink.com 1.10,2013-01-19 21:39:00,
2013-01-19 22:54:00,54.3,52.0,29.54,ENE,62,7.0,15.0,91,0.00,,,0.00,0,weatherlink.com 1.10,2013-01-19 21:54:00,
2013-01-19 23:09:00,54.4,52.0,29.54,ENE,74,7.0,16.0,91,0.00,,,0.00,0,weatherlink.com 1.10,2013-01-19 22:09:00,
2013-01-19 23:39:00,54.6,53.0,29.54,ESE,102,7.0,15.0,93,0.00,,,0.00,0,weatherlink.com 1.10,2013-01-19 22:39:00,
2013-01-19 23:54:00,54.9,53.0,29.54,East,86,7.0,19.0,92,0.00,,,0.00,0,weatherlink.com 1.10,2013-01-19 22:54:00,